Location: Cerezo de Arriba
(41.2389°N, 3.5585°W)
Time: 04:02:34
(UTC+00:00)

Cosmos 1697 Rocket - Pass Details

Date: 19 May 2025
Orbit: 830 x 844 km, 71.0° (Epoch: 23 June)

Event Time Altitude Azimuth Distance (km) Brightness Sun altitude
Rises 23:02:59 0° 320° (NW) 3,404 6.9 -26.8°
Reaches altitude 10° 23:06:07 10° 303° (WNW) 2,466 5.7 -27.0°
Maximum altitude 23:09:55 19° 261° (W) 1,913 4.6 -27.2°
Enters shadow 23:10:50 18° 248° (WSW) 1,948 4.5 -27.2°
